Wind_Speed
66 66 68 66 63 63 64 63 61 61 59 58 58 57 58 60 61 60 60 58 59 60 60 58 56 54 54 54 53 52 53 54 54 54 54 54 56 57 58 59 60 60 60 61 62 62 63 64 64 65 66 66 68 65 56 53 59 68 73 75 76 77 78 78 78 78 76 75 73 71 70 69 68 66 64 62 62 61 62 62 62 62 62 63 64 65 66
68 68 68 66 65 66 67 65 63 62 60 59 59 59 60 62 63 64 63 60 60 62 62 60 58 57 56 55 55 54 54 54 55 56 57 56 57 59 60 61 61 61 62 63 63 64 65 65 66 67 67 68 69 65 56 54 61 71 77 77 78 79 79 80 80 79 78 77 75 73 72 70 69 68 65 64 63 62 62 61 62 62 63 64 65 66 67
70 71 69 68 68 69 69 67 65 63 61 61 61 61 62 64 64 66 66 63 62 63 63 61 60 60 59 57 57 57 56 56 57 58 59 59 60 61 63 63 63 64 64 64 66 67 66 65 67 67 67 68 67 60 55 58 67 77 80 78 79 80 81 81 81 80 79 78 76 75 73 72 71 69 67 65 63 62 62 62 62 62 63 64 65 66 68
73 73 71 71 72 72 70 68 66 64 63 64 64 64 66 66 66 68 67 65 65 64 62 62 62 62 62 60 59 59 58 59 60 60 62 62 63 64 65 66 66 66 67 67 68 68 67 67 68 68 68 67 59 53 58 67 75 79 79 79 80 81 81 82 81 81 80 79 77 76 75 74 72 70 68 66 64 63 63 63 63 63 64 64 65 66 68
75 74 72 74 76 74 71 69 68 66 65 66 66 67 69 68 68 69 68 67 67 64 63 63 63 64 64 62 61 60 60 61 62 62 64 65 65 66 67 67 68 68 69 70 69 69 69 70 71 70 68 62 56 58 68 76 79 79 79 80 81 81 82 83 82 82 81 80 78 77 76 75 73 70 68 66 65 64 63 63 63 64 64 64 65 68 69
75 75 75 76 77 75 73 72 70 68 67 68 69 70 71 70 70 70 69 69 68 65 64 65 65 65 65 64 62 62 63 63 64 64 65 66 67 68 69 69 69 70 71 71 71 71 72 73 73 73 71 66 64 69 75 77 78 79 80 81 81 82 83 83 83 82 82 80 79 78 77 75 73 70 67 66 64 63 63 64 64 64 65 66 67 70 72
77 78 77 77 76 76 76 75 72 69 69 71 71 72 73 73 72 71 71 69 68 67 67 66 66 65 65 65 64 65 65 66 66 66 67 68 68 69 69 69 70 72 72 73 74 74 75 77 77 77 76 74 74 77 79 79 80 81 82 82 83 83 84 84 84 83 81 80 80 78 77 75 71 66 65 64 62 63 64 65 66 66 66 67 69 72 75
79 79 78 76 76 76 76 76 74 72 72 74 73 74 76 75 73 72 72 71 69 69 69 68 67 66 66 66 67 67 67 67 67 67 68 69 69 70 70 71 73 74 75 75 76 77 78 79 80 80 80 80 81 82 82 82 83 83 84 84 84 85 86 86 85 83 82 81 80 77 76 73 67 64 64 63 63 65 67 67 67 68 68 70 73 75 77
80 80 79 78 78 77 75 74 75 75 76 76 75 75 77 77 75 74 74 72 71 71 71 70 69 68 68 69 69 68 68 68 68 69 70 70 71 72 73 74 75 76 76 77 78 79 80 81 82 83 83 84 84 86 86 86 86 86 87 86 86 87 88 88 86 85 83 81 79 77 75 71 67 66 67 66 65 67 68 68 69 70 71 73 76 78 80
82 81 80 79 80 79 77 76 76 77 79 78 76 77 79 79 77 76 75 73 72 73 73 73 71 70 70 71 70 68 70 70 70 70 71 71 72 73 74 75 76 77 78 79 79 80 82 82 83 84 85 86 87 88 89 89 89 89 89 88 88 89 90 89 88 86 83 80 79 77 73 69 67 68 68 68 68 68 69 70 71 72 74 77 79 81 82
83 82 82 81 81 81 80 79 78 77 78 79 77 77 79 80 79 77 75 74 74 75 75 74 73 72 72 72 70 69 71 72 71 72 73 73 74 75 75 76 77 78 79 80 81 82 83 83 84 85 86 87 88 89 90 91 90 91 90 90 91 91 91 90 89 85 83 82 79 75 71 67 65 67 69 70 71 71 72 72 73 75 78 80 81 83 84
83 83 82 82 82 82 83 82 81 79 79 81 80 78 79 81 80 77 76 76 77 77 76 75 75 74 73 73 72 71 72 73 73 74 75 75 76 77 77 78 78 79 80 81 82 83 83 84 85 86 87 88 89 91 91 92 92 92 92 92 93 93 92 91 88 84 82 80 76 72 69 66 65 68 72 73 73 73 74 75 76 79 81 82 84 86 86
85 85 83 82 83 85 85 84 84 82 81 83 83 81 80 81 80 78 77 77 77 77 77 77 76 75 74 73 73 73 73 75 76 76 77 78 78 78 79 79 79 80 81 82 83 84 85 85 86 87 89 90 90 91 92 93 93 93 93 93 94 93 92 91 87 84 81 78 74 71 69 66 67 71 74 74 73 75 76 77 79 81 83 85 86 88 88
86 86 85 84 85 86 85 84 84 84 83 83 83 82 80 80 80 78 77 77 77 78 78 77 77 76 75 74 74 74 74 76 78 79 79 80 80 80 80 81 81 82 83 84 85 85 86 86 88 89 90 90 91 92 92 93 94 94 94 94 94 93 92 90 88 84 79 75 72 70 66 66 69 72 74 74 76 77 78 79 81 82 84 86 87 88 88
87 87 88 88 87 86 86 85 85 84 83 84 84 82 81 80 79 79 78 77 77 78 79 78 77 77 77 76 76 77 77 78 79 80 81 82 82 82 82 82 83 84 84 85 86 87 87 88 89 90 91 92 92 92 93 94 95 95 95 95 95 94 92 90 87 82 77 74 71 67 64 67 72 73 74 76 78 79 80 82 83 84 85 87 88 88 86
88 89 90 90 88 86 85 85 85 84 83 83 83 81 80 79 79 79 79 77 76 78 79 79 78 78 79 79 77 76 76 78 80 81 83 84 84 84 84 84 85 85 86 87 88 89 89 89 90 91 92 93 93 93 94 96 96 96 96 96 96 94 91 89 85 81 77 73 68 65 66 70 74 75 76 78 80 81 83 84 85 86 86 87 88 86 83
88 87 88 87 85 85 85 85 86 86 84 82 82 82 81 80 80 79 79 79 79 79 79 80 80 80 81 80 79 79 80 81 82 83 84 85 85 86 86 86 87 88 88 89 90 90 90 91 92 93 94 94 94 95 96 97 96 96 96 95 95 93 90 87 83 80 76 68 63 66 72 74 75 77 78 80 82 83 84 86 87 88 87 87 86 84 82
88 86 85 84 83 83 84 85 87 87 84 82 83 83 83 82 82 81 81 80 81 80 80 81 81 82 82 82 82 83 82 82 82 84 85 86 87 88 88 89 90 90 90 91 91 91 92 93 94 94 94 95 97 97 98 98 97 96 96 94 93 92 89 85 81 78 74 69 68 72 76 77 79 81 81 83 84 84 85 87 87 86 84 83 83 82 80
88 86 86 86 85 85 85 85 85 85 83 83 84 84 83 83 83 82 82 81 81 81 81 81 82 82 83 83 82 81 81 83 84 86 86 87 87 88 89 90 91 91 92 92 92 92 92 93 95 95 95 97 99 99 98 98 97 97 96 94 93 90 87 83 79 76 73 72 74 77 78 80 83 83 83 85 86 86 87 87 87 86 84 81 81 81 78
87 86 87 87 86 87 88 87 84 82 82 82 83 83 84 84 83 83 82 82 82 82 82 82 82 83 83 83 83 83 82 81 83 84 85 86 88 89 90 90 92 93 93 93 93 93 94 95 97 97 98 100 100 99 99 98 97 97 96 94 91 88 84 81 78 76 76 77 79 81 83 84 84 84 86 88 88 87 87 87 87 87 84 81 80 78 73
86 87 87 84 82 85 87 85 82 82 84 85 84 83 83 83 83 83 82 82 82 82 80 79 78 79 80 81 83 82 77 75 79 85 87 88 88 88 89 91 92 92 92 93 95 96 97 98 99 99 100 101 102 101 100 99 98 97 94 91 89 86 83 81 79 79 80 81 83 84 86 87 87 87 88 89 90 90 89 88 87 84 82 80 77 73 68
85 87 86 83 82 84 85 83 81 83 85 85 84 84 84 84 84 84 83 83 83 82 81 79 77 76 74 76 79 76 72 75 82 87 88 89 90 91 91 92 92 92 93 95 97 98 99 100 100 101 101 102 102 102 101 99 97 95 91 87 86 85 84 83 82 83 84 85 86 87 88 89 90 89 89 90 92 91 88 86 84 82 79 76 72 69 66
85 85 84 83 84 87 87 85 83 84 85 84 83 84 85 85 85 85 85 85 84 84 84 84 83 79 75 76 79 78 75 79 85 88 90 92 93 93 92 93 93 95 97 98 98 99 101 101 102 102 102 102 102 102 100 98 94 91 87 85 85 86 86 86 85 87 88 89 90 90 90 90 91 91 91 91 91 88 85 82 80 78 75 72 69 66 63
86 85 82 81 84 87 88 87 85 85 84 84 84 85 85 86 86 86 86 86 86 85 85 86 85 83 81 81 84 83 81 83 86 89 92 93 94 94 96 97 98 98 99 100 101 102 103 103 103 103 103 102 102 100 97 94 91 88 86 86 86 87 88 88 88 89 91 92 92 92 92 92 92 92 90 88 85 83 81 79 76 74 71 69 67 64 60
88 86 83 82 84 87 88 87 87 85 84 84 86 88 88 87 87 87 87 87 87 86 86 87 87 87 87 87 88 88 88 89 90 92 94 95 97 98 98 98 99 100 102 104 105 105 104 104 104 104 103 101 99 96 93 90 89 88 87 87 88 89 90 90 89 91 92 93 93 94 94 93 92 90 87 84 81 79 77 76 74 72 70 67 64 60 56
87 85 82 83 85 88 88 87 87 86 85 86 89 90 89 88 88 88 89 89 89 88 88 89 90 90 91 92 93 93 94 94 95 95 97 97 97 97 97 99 102 105 106 106 106 105 105 105 103 102 100 97 94 92 90 89 89 89 89 89 90 90 91 91 92 93 94 94 93 94 92 91 90 87 84 82 80 77 75 74 73 71 68 64 60 56 52
86 84 83 84 86 87 87 86 86 87 88 88 89 89 89 89 90 90 90 91 91 91 90 90 91 92 92 94 95 95 95 97 97 96 96 96 97 98 100 103 106 106 106 105 106 105 104 102 100 98 96 94 92 91 91 90 90 90 90 91 91 92 92 93 94 95 96 95 94 91 88 87 87 85 81 80 79 77 75 73 70 66 62 59 56 53 49
87 87 86 86 86 87 87 86 87 88 90 89 89 89 90 91 91 92 92 93 94 94 93 92 93 93 94 95 95 95 96 98 97 95 95 97 98 100 102 104 104 104 104 105 105 104 101 99 97 95 94 93 93 92 91 92 92 92 92 93 93 93 93 93 94 94 93 92 90 88 85 85 85 83 80 79 78 75 72 69 65 61 58 56 53 51 47
87 88 87 87 88 88 89 88 88 89 90 90 91 91 92 92 93 94 94 94 96 97 96 95 94 95 96 97 97 96 97 99 99 98 99 101 101 102 104 104 103 103 103 103 102 100 98 96 95 94 94 94 93 93 93 94 94 94 95 94 94 94 93 92 91 90 87 85 85 85 83 83 81 80 79 78 75 71 67 64 61 59 56 53 51 48 45
85 86 86 87 88 88 89 89 89 90 90 91 92 93 93 94 94 95 95 96 97 98 98 97 96 96 96 97 97 97 98 100 100 101 102 103 103 103 103 102 101 100 99 99 98 97 96 95 95 95 95 95 95 95 96 96 95 95 95 94 95 95 92 89 87 87 86 85 84 83 81 80 79 77 76 73 70 66 63 60 57 55 53 51 48 45 42
85 85 86 87 87 88 88 89 89 91 92 92 93 94 95 95 95 95 96 97 98 98 99 98 97 97 98 97 97 97 98 99 100 100 101 101 100 100 100 98 97 96 95 96 96 96 96 97 97 96 96 96 96 96 96 96 96 94 93 93 93 93 90 88 86 85 83 82 81 80 78 77 75 73 71 68 65 62 58 55 53 51 49 48 46 43 42
86 87 88 88 89 90 90 91 91 92 94 94 95 95 96 96 96 96 97 98 99 99 99 99 99 99 99 98 97 98 99 99 98 98 97 97 97 97 96 95 95 94 95 96 97 97 97 97 97 97 97 97 96 96 96 96 95 93 91 91 91 90 88 86 85 83 81 79 79 78 76 73 70 68 66 64 61 57 53 51 49 47 46 45 44 42 42
88 89 90 91 92 92 92 93 93 94 95 95 96 96 96 97 97 97 97 98 98 99 99 98 98 97 97 96 96 96 96 95 94 93 94 94 94 95 95 95 95 96 97 97 97 97 98 98 98 98 98 97 96 96 96 95 94 92 91 89 87 86 85 83 81 79 78 77 75 73 71 68 66 64 62 59 56 53 50 47 45 44 43 43 42 41 41
84 86 87 89 90 90 91 92 92 92 93 94 94 95 95 95 95 95 95 95 95 95 95 94 93 93 92 91 90 90 91 90 88 87 88 90 92 93 94 94 95 96 97 98 98 98 99 99 100 99 98 96 95 95 95 94 92 91 89 86 83 83 82 80 78 76 74 72 70 67 65 63 61 59 57 54 51 48 46 45 43 42 41 41 41 41 41
77 79 80 81 82 83 84 85 86 86 87 87 88 89 89 90 90 90 90 90 90 90 90 90 90 90 90 88 87 88 89 88 87 87 90 92 93 94 95 95 96 97 98 99 99 99 100 100 100 98 97 96 95 94 94 92 90 88 86 83 81 80 78 76 73 71 68 65 63 60 58 57 55 53 51 49 47 45 44 43 42 41 41 40 40 40 41
76 77 77 78 78 79 79 80 80 81 81 82 83 84 85 85 86 86 86 87 87 88 88 89 90 89 89 89 88 89 91 92 92 93 95 96 96 97 97 97 98 99 99 99 99 99 99 99 98 97 96 95 94 93 92 90 87 84 82 79 77 76 73 70 67 64 61 59 56 54 53 52 51 49 47 46 44 43 42 41 41 41 41 40 40 40 40
79 79 79 79 79 80 80 80 80 80 81 82 83 84 84 84 85 85 86 87 88 88 90 91 92 91 91 91 91 92 93 94 94 95 95 96 97 98 98 99 99 100 99 98 97 97 98 98 97 96 95 94 92 90 88 84 81 79 77 75 72 70 66 63 61 58 55 53 52 50 49 48 47 47 45 44 43 42 41 41 41 41 40 40 40 40 40
82 82 82 82 82 82 82 83 83 83 84 85 85 86 87 88 88 89 89 89 90 91 92 93 94 94 94 93 93 94 95 95 95 96 96 97 97 98 98 99 99 98 97 96 95 96 96 96 95 94 92 90 87 84 81 78 76 74 72 69 66 64 61 58 55 53 51 49 48 47 46 45 45 45 44 43 43 42 42 42 42 42 41 40 40 41 41
85 85 85 85 85 84 85 85 86 86 87 88 88 89 89 90 91 91 92 92 92 93 94 95 95 95 95 95 95 96 96 96 95 95 94 94 95 95 96 96 96 96 96 95 95 94 93 92 90 88 86 83 80 77 75 73 71 69 66 63 61 59 56 53 50 48 47 46 45 45 45 44 44 44 44 43 43 43 43 42 42 42 41 40 39 40 42
89 89 88 88 87 86 86 87 87 88 89 90 90 91 92 93 93 93 94 94 94 95 95 96 96 95 95 95 94 94 93 92 92 91 91 92 93 94 93 94 95 95 95 94 93 91 89 86 84 82 79 76 73 72 71 69 66 64 62 60 57 54 51 49 47 46 45 45 44 44 44 44 44 44 44 44 44 44 43 42 40 40 40 40 39 39 39
90 89 88 87 86 86 87 87 88 89 90 91 92 92 92 92 92 92 93 93 93 93 93 93 93 93 92 92 91 91 90 90 90 90 90 92 93 92 90 91 92 91 90 89 87 85 82 80 77 75 73 71 70 69 67 65 62 61 59 56 53 50 48 47 46 45 45 45 46 45 45 45 44 44 44 44 43 43 41 40 38 37 37 38 37 37 36
87 85 83 82 83 84 84 84 85 86 88 88 88 88 89 89 89 89 89 90 90 90 90 90 90 91 91 91 91 90 90 90 90 89 88 88 87 86 84 84 84 83 82 81 80 77 74 72 71 69 68 68 67 65 63 61 59 57 55 52 50 48 46 46 46 46 46 47 47 46 45 44 43 43 42 41 40 40 39 37 36 35 35 35 35 34 34
81 78 76 77 79 79 77 77 79 81 82 82 83 84 85 86 86 87 87 88 88 88 88 89 89 89 89 88 88 88 87 86 85 83 81 80 78 76 75 74 74 74 73 73 72 69 67 66 66 65 64 64 63 61 59 58 56 54 51 49 48 47 46 46 46 47 47 47 46 45 44 43 41 41 40 39 37 36 35 35 34 33 33 32 32 32 32
74 71 69 70 72 71 70 70 72 74 74 75 76 78 81 83 84 85 85 85 84 84 84 84 83 83 82 81 79 78 77 76 74 73 71 69 68 66 66 66 66 66 66 66 64 63 62 63 62 61 59 59 58 57 56 54 53 51 50 48 47 46 46 46 46 46 45 44 43 42 41 40 39 37 37 36 34 33 32 32 32 31 31 31 32 32 32
66 62 59 58 59 60 60 60 61 63 64 62 60 62 68 72 74 74 74 72 70 70 70 70 70 70 70 69 67 66 65 65 65 65 63 61 60 60 61 60 61 61 61 60 59 58 58 59 58 56 55 54 54 53 53 52 51 50 49 48 46 45 44 44 44 43 42 41 40 39 38 37 35 34 33 33 32 31 30 30 31 31 32 32 33 33 34
55 52 49 47 48 49 49 50 52 53 54 53 53 55 59 62 62 61 59 57 54 53 54 54 55 57 58 58 58 57 56 56 58 60 59 58 57 57 57 56 56 56 56 56 55 55 54 53 53 52 52 52 52 51 51 50 49 48 47 45 43 41 41 40 41 40 38 37 35 34 33 32 31 31 31 31 31 31 31 31 32 33 33 34 35 35 35
43 41 39 38 37 38 40 42 44 45 46 47 49 51 52 53 53 51 47 44 43 44 44 45 47 50 51 52 53 52 52 52 53 54 54 54 53 53 53 52 52 52 52 52 51 51 50 48 48 48 50 51 51 50 49 48 46 44 42 40 38 37 37 37 36 35 34 32 31 30 30 30 30 30 30 30 31 31 32 32 33 33 34 35 35 35 35
33 32 31 29 28 28 31 34 36 37 38 39 40 40 40 41 41 38 34 31 33 35 36 38 40 43 45 45 45 45 45 46 46 47 48 49 49 49 49 49 49 49 48 47 47 47 46 45 46 48 49 50 49 47 45 43 41 38 36 35 34 33 33 33 32 31 30 30 30 29 29 29 29 29 29 30 30 31 31 32 32 33 34 34 35 35 35
24 24 23 22 21 23 25 27 28 29 29 30 31 32 32 32 32 32 30 30 31 33 34 35 36 37 39 40 41 41 41 43 43 43 44 45 45 46 46 47 47 46 45 44 44 45 45 44 45 47 47 45 43 41 39 37 35 34 32 31 31 31 30 30 30 30 30 30 30 30 29 29 29 29 29 29 29 30 31 32 32 33 33 34 34 34 34
16 16 16 16 17 19 20 21 22 23 23 24 25 26 27 26 26 26 27 28 30 32 34 35 36 36 38 41 43 44 43 43 43 42 42 42 43 43 44 45 44 43 42 41 42 43 43 41 41 41 41 39 37 37 36 34 32 30 31 31 31 31 30 30 30 30 30 30 30 29 29 29 29 29 29 29 29 30 31 32 32 33 33 33 33 32 32
11 11 12 13 14 16 17 19 20 20 20 21 22 23 23 23 25 27 29 31 34 36 38 39 41 41 42 43 44 44 43 41 41 41 41 41 41 41 42 42 42 41 39 36 36 37 38 37 37 37 37 35 33 34 35 34 31 29 30 31 30 30 30 30 30 30 30 30 30 29 29 29 29 29 29 29 30 31 31 32 33 33 33 32 31 31 31
12 13 14 15 16 18 19 20 21 21 22 23 25 26 26 27 29 32 34 36 38 40 41 42 41 41 40 41 41 40 39 38 38 38 39 38 38 37 37 38 38 37 35 32 30 30 32 34 35 36 36 35 32 32 34 35 33 31 30 31 31 30 30 30 30 30 30 30 29 29 29 29 30 30 30 30 31 32 32 33 33 33 32 31 31 30 30
Wind_Direction
249 250 252 253 255 257 258 259 260 261 262 264 265 266 267 269 270 271 271 272 275 277 279 281 283 286 289 290 291 291 292 293 294 294 295 295 297 298 300 302 303 304 305 307 307 308 309 311 312 313 315 316 318 318 312 303 305 313 316 318 319 320 321 321 321 322 321 320 320 318 317 316 315 314 312 310 308 306 304 303 303 302 302 302 302 303 303
250 251 252 254 255 257 258 258 259 260 262 264 265 266 267 268 269 270 270 271 273 275 278 281 284 286 288 290 290 290 290 292 292 293 294 294 295 297 299 300 301 302 304 305 306 307 309 310 311 313 314 316 317 316 307 298 303 312 316 317 318 319 320 320 321 321 320 320 319 318 317 316 315 313 311 309 307 306 304 304 303 302 303 303 303 303 304
251 251 252 254 254 255 256 258 259 261 263 264 265 266 266 266 267 268 269 270 271 274 277 281 284 285 287 288 289 289 290 290 291 291 292 293 294 296 298 299 301 302 303 305 305 306 307 308 309 311 312 316 318 314 305 302 306 312 315 316 317 318 319 319 320 320 320 319 318 318 317 316 314 312 310 309 307 306 305 304 304 304 303 303 303 304 305
250 251 252 253 255 254 255 257 259 260 262 264 264 265 265 266 266 268 269 270 271 273 277 280 283 284 286 288 288 288 289 289 290 291 292 294 295 297 299 300 301 302 303 304 304 305 305 306 308 309 311 318 319 307 298 301 306 310 313 315 316 317 318 319 319 319 319 319 318 317 316 315 313 311 310 308 307 306 305 304 304 304 303 303 304 306 308
250 251 251 253 255 255 255 256 257 258 260 262 263 264 265 266 266 267 269 270 271 274 277 279 281 283 285 287 288 287 287 288 289 290 292 294 296 297 299 300 300 301 301 302 302 303 303 304 306 307 310 314 309 297 296 303 307 310 312 314 315 316 317 318 319 319 318 318 317 316 315 313 312 310 309 308 307 306 305 304 304 304 304 305 307 308 310
251 251 251 252 254 256 256 256 257 258 259 261 262 263 264 265 266 268 269 270 272 274 276 277 280 282 285 286 286 286 286 287 289 290 292 294 295 296 297 298 298 299 299 300 300 301 302 303 305 306 308 308 303 299 302 306 309 311 312 313 315 316 316 317 318 318 318 317 316 315 314 312 311 309 308 308 307 305 305 305 306 306 306 308 309 311 312
251 251 251 253 255 257 258 258 258 258 260 261 262 263 264 265 266 268 269 271 273 274 275 277 279 281 283 284 283 284 285 287 288 290 292 293 294 295 296 296 297 297 298 299 300 301 302 303 305 306 307 307 305 305 307 308 310 311 312 313 314 315 316 317 318 318 317 316 315 314 313 312 310 309 308 307 306 305 306 307 308 307 308 310 311 312 312
249 251 251 253 254 256 258 259 259 259 259 260 261 263 264 265 266 268 269 271 272 274 275 276 278 280 281 281 281 283 285 286 287 289 291 292 293 294 295 296 296 297 298 299 300 301 302 303 304 306 307 307 307 308 309 310 311 311 312 314 315 315 316 317 317 317 316 315 314 314 313 311 308 308 308 306 305 307 308 309 309 309 310 311 312 312 313
248 250 251 251 253 254 256 258 260 259 259 259 261 263 264 266 267 268 269 271 272 274 275 275 276 278 279 279 281 283 284 285 286 288 289 291 292 293 294 294 295 296 297 299 300 301 302 303 304 305 306 307 307 308 309 310 311 311 312 314 315 315 315 316 317 317 315 314 314 313 312 309 306 307 307 306 306 308 309 309 309 310 312 312 313 313 314
247 249 251 251 252 254 255 257 258 259 259 260 261 262 264 265 267 268 269 271 273 273 274 274 276 277 277 279 281 282 283 284 286 287 288 290 291 291 292 293 294 295 297 298 299 299 300 302 303 305 306 306 307 308 309 310 311 311 313 314 314 314 315 316 316 316 315 314 313 312 311 307 305 306 307 307 309 310 309 309 310 311 313 313 313 314 315
247 249 251 252 253 254 254 255 256 258 259 260 260 261 263 265 266 268 270 271 272 272 273 275 276 277 277 279 280 281 282 284 285 286 288 289 289 290 291 292 293 294 295 296 298 299 300 302 303 304 304 305 306 307 308 309 310 311 312 313 313 314 314 315 315 316 315 314 313 312 310 307 305 306 308 309 310 310 310 310 311 313 313 313 314 314 315
248 249 250 251 252 253 253 254 254 256 258 260 260 261 263 265 266 268 269 270 271 272 274 275 276 276 277 279 280 281 282 283 284 285 286 287 289 290 291 292 293 294 295 296 297 298 299 301 302 302 303 304 305 306 307 308 309 310 311 312 312 313 314 314 315 315 314 313 312 311 309 306 305 307 308 310 310 310 310 311 313 313 313 314 314 315 315
247 248 249 250 251 252 253 254 255 256 257 259 261 261 262 264 266 268 269 270 271 272 273 274 275 276 278 279 280 281 282 282 283 285 286 287 288 289 290 291 292 293 294 295 296 297 298 299 300 301 302 303 304 305 306 307 308 309 310 310 311 312 313 313 313 313 312 311 310 308 307 304 304 306 308 309 309 310 310 312 313 314 314 314 315 315 316
246 248 249 249 250 252 253 254 256 257 258 259 261 261 262 263 265 267 268 270 271 272 273 274 275 277 278 278 279 280 281 282 284 285 286 287 288 289 290 291 291 292 293 294 295 296 297 298 299 300 301 302 303 304 305 306 307 308 309 309 310 311 312 312 311 311 311 309 307 306 304 301 302 305 307 308 309 310 311 312 313 313 314 314 314 315 315
246 248 248 248 250 252 254 255 256 257 259 260 261 262 263 264 266 267 268 269 271 272 273 275 276 276 277 278 279 280 281 282 284 285 286 287 288 288 289 290 291 291 292 293 294 295 296 297 299 299 300 301 302 303 304 305 306 307 308 309 309 310 310 310 309 309 309 306 304 303 301 300 302 305 307 308 309 310 311 312 312 313 313 314 314 314 315
246 247 249 250 251 252 254 255 256 257 257 259 260 262 263 265 265 266 267 268 269 271 272 274 275 276 277 278 279 280 281 283 284 285 285 286 287 287 288 289 290 290 291 292 294 295 296 297 298 298 299 301 301 302 303 303 304 306 307 307 308 308 308 308 308 307 306 304 303 301 300 300 302 305 306 308 309 309 310 311 311 312 313 313 313 314 315
245 247 249 251 252 252 253 254 255 256 256 258 261 262 263 264 264 265 267 268 268 269 271 273 274 275 277 278 279 280 282 283 283 284 285 286 286 287 288 289 289 290 291 292 294 295 296 297 297 298 299 300 300 300 301 302 303 305 305 306 306 307 307 306 306 305 305 304 302 301 301 302 303 305 307 308 308 309 310 310 311 312 313 313 314 315 316
245 246 248 249 250 251 252 253 255 256 257 258 260 262 262 263 264 265 266 267 268 269 270 272 273 275 277 278 280 281 282 283 284 284 284 285 286 287 288 289 290 291 292 293 294 295 295 296 297 298 299 298 299 299 300 302 303 304 304 305 305 305 305 305 304 304 303 302 300 301 302 303 304 305 307 307 308 308 310 311 311 312 313 314 314 314 315
245 246 247 248 249 250 251 252 253 255 257 258 259 261 262 263 264 265 266 267 268 269 270 271 273 275 276 278 279 280 282 283 284 283 283 284 285 286 288 289 290 291 292 292 293 294 294 295 296 297 297 297 298 299 300 301 302 303 303 304 304 304 304 303 303 303 302 301 301 301 302 303 304 306 306 307 307 308 309 310 310 311 312 312 312 313 314
245 245 245 247 249 250 251 252 253 255 257 257 258 259 261 262 263 264 266 267 268 269 270 271 273 274 276 277 278 280 282 282 282 282 283 284 285 286 287 288 289 290 291 292 293 293 294 295 295 296 296 296 298 299 300 301 302 302 303 304 303 303 302 302 302 302 302 302 302 302 303 304 304 305 306 306 306 307 308 308 309 309 310 310 310 311 311
244 245 245 247 249 251 252 252 253 255 255 256 257 258 260 262 263 264 265 266 267 268 270 271 273 275 277 278 278 279 279 279 279 281 282 284 285 286 287 288 289 289 290 291 292 293 293 294 294 295 296 296 297 299 300 300 301 301 302 303 302 302 301 301 302 303 302 302 302 303 303 304 304 305 305 305 306 306 307 308 308 309 309 309 309 309 309
245 246 246 246 248 250 252 252 252 254 255 256 258 259 260 261 262 263 264 265 266 268 269 271 272 274 276 277 278 278 277 278 280 281 282 283 285 286 287 287 288 288 289 290 291 292 293 293 294 294 295 296 297 298 299 300 300 301 301 301 301 301 301 301 303 303 302 302 302 302 303 303 304 304 304 305 305 306 307 307 308 309 309 309 309 308 308
246 246 246 246 247 249 251 252 252 254 255 257 257 258 259 260 261 262 264 265 266 268 269 270 271 273 274 275 276 277 277 278 279 280 281 283 285 285 285 286 286 287 288 289 291 291 292 292 293 294 295 296 297 297 298 299 300 300 300 300 301 301 301 302 302 302 302 302 302 302 302 303 303 303 304 304 305 305 306 307 307 308 309 309 308 308 308
248 247 247 247 248 249 251 252 252 253 255 256 257 258 259 260 261 262 264 265 266 267 269 270 271 272 272 273 274 275 276 277 278 279 280 282 284 284 285 285 286 286 288 290 291 291 291 292 293 294 294 295 296 297 298 298 299 299 300 300 300 300 300 301 302 302 301 301 301 301 301 302 302 303 303 304 304 304 305 306 307 307 308 307 306 307 307
248 248 248 249 250 251 252 253 253 253 254 256 257 258 259 260 262 263 264 265 266 267 268 270 271 271 271 272 273 274 275 276 277 279 281 283 284 284 284 285 286 287 289 290 291 291 291 292 293 293 294 295 295 296 297 297 298 298 299 299 299 299 300 301 301 300 300 300 300 300 301 301 301 302 303 303 303 303 304 305 306 306 306 305 304 304 303
247 249 249 250 251 252 252 254 255 255 255 256 257 258 260 261 263 264 265 266 267 268 269 270 271 272 273 273 274 275 276 277 278 279 281 282 283 283 284 285 286 288 289 290 290 290 291 292 293 293 294 294 295 295 296 297 297 298 298 298 298 299 299 300 300 299 299 299 299 299 300 301 301 302 302 302 302 302 303 303 304 304 304 303 303 303 301
247 248 249 249 251 252 253 255 256 257 257 257 258 260 261 262 263 264 265 266 267 268 269 270 271 272 273 275 276 277 277 278 279 280 281 281 281 282 284 285 287 288 288 289 289 290 291 292 293 293 293 294 294 295 296 296 296 297 297 298 298 298 299 299 299 298 298 299 299 299 300 300 301 301 301 301 301 301 302 302 302 301 301 301 301 301 298
247 248 249 250 251 252 253 254 255 256 258 258 259 260 261 262 263 264 265 266 267 268 269 269 271 272 273 274 275 276 277 279 280 280 280 280 281 283 284 286 286 287 288 288 289 290 290 291 291 292 292 293 294 294 295 295 296 296 297 297 297 298 298 298 298 298 298 298 298 298 299 299 299 299 299 299 300 301 301 301 300 299 299 298 297 296 293
249 250 250 251 252 253 253 254 255 256 258 259 260 260 261 262 263 264 265 266 267 268 269 269 270 272 273 274 275 276 277 278 279 279 279 280 282 283 284 285 285 286 287 287 287 288 289 290 290 291 291 292 293 294 295 295 295 296 296 296 297 297 296 297 296 296 296 297 297 297 297 297 297 297 298 299 299 299 299 298 298 297 297 296 294 292 289
250 251 252 253 253 254 255 256 256 257 258 259 260 261 262 262 263 265 266 267 268 269 270 271 272 272 273 274 276 277 277 277 278 279 279 281 282 283 283 283 284 284 285 286 286 287 288 289 290 290 291 293 293 294 294 294 295 295 296 296 296 295 295 295 295 294 295 295 296 296 296 296 296 296 297 297 297 297 297 296 296 295 295 293 291 289 286
251 252 253 254 254 255 256 257 258 258 259 260 261 262 263 263 264 265 267 268 269 270 271 272 273 273 273 274 275 275 275 276 277 278 279 281 281 282 282 282 283 284 284 285 286 287 288 289 290 291 292 293 293 293 294 294 294 294 295 295 295 294 295 295 295 295 295 295 295 295 296 296 295 295 295 295 295 295 295 294 293 292 291 290 288 286 282
251 252 253 254 255 256 256 257 258 259 260 261 262 263 264 265 266 266 267 269 270 270 271 272 273 273 274 274 274 274 275 276 277 278 279 280 280 280 281 282 283 284 285 286 287 288 288 289 290 291 292 292 293 293 293 293 294 294 295 295 295 295 295 295 295 295 294 294 294 295 295 295 294 294 293 293 293 293 292 291 290 289 287 286 285 282 278
252 253 254 254 255 256 257 258 259 260 261 262 263 264 265 266 266 267 268 269 270 271 271 272 272 273 274 274 275 275 276 277 278 278 278 278 279 280 281 283 284 285 286 286 287 288 289 289 290 291 292 292 293 293 293 294 294 295 295 295 295 295 295 295 295 295 295 294 294 294 293 293 292 292 291 291 291 291 290 289 287 285 284 283 281 278 275
254 254 254 255 256 257 258 258 259 260 261 263 264 264 265 266 267 268 268 269 270 271 271 272 272 273 273 274 275 276 277 277 278 278 278 278 279 281 282 283 284 285 286 286 287 288 289 290 290 291 291 292 292 293 293 294 295 295 295 295 294 294 295 295 295 295 294 294 293 292 292 291 290 289 289 289 289 288 288 286 285 283 281 280 278 275 271
255 256 256 257 257 258 258 259 260 261 262 262 264 264 265 266 267 268 268 269 270 270 271 272 272 273 273 274 275 275 276 276 276 277 278 279 281 282 283 283 284 284 285 286 287 288 289 289 290 290 291 291 292 293 294 294 295 295 295 295 294 294 295 295 295 295 294 293 292 291 290 289 288 288 288 288 287 286 285 284 282 281 280 279 277 273 269
258 258 259 259 259 260 260 260 261 262 262 263 264 264 265 266 267 268 269 269 270 271 271 272 272 272 273 274 274 275 275 276 277 278 279 280 281 282 283 283 284 284 285 286 287 287 288 288 289 290 291 292 292 293 293 294 294 294 294 294 294 294 295 295 294 294 293 292 291 289 288 288 287 287 287 286 286 285 284 283 282 281 281 279 277 273 269
260 260 260 261 262 262 263 263 263 263 264 264 265 266 266 267 267 268 269 269 270 271 271 272 272 273 273 274 275 275 276 277 278 279 280 281 282 283 283 284 284 284 285 285 286 287 287 288 289 290 291 291 292 292 293 293 293 293 293 294 295 295 295 295 294 294 292 291 290 289 288 288 287 287 287 287 286 284 283 283 282 281 281 279 276 273 270
261 262 262 263 263 264 264 265 265 266 266 266 267 267 268 268 268 269 269 269 270 271 272 272 273 274 275 275 276 276 277 278 279 279 280 281 282 282 282 283 283 284 284 285 285 286 287 288 289 290 290 290 291 292 292 292 292 293 294 295 296 296 296 295 294 293 292 291 290 289 288 287 287 287 287 287 286 285 285 284 284 282 280 277 275 273 272
262 263 263 264 264 265 265 266 267 267 268 268 268 269 269 270 270 270 271 271 272 272 273 274 274 275 276 277 277 277 278 278 278 279 280 280 280 281 281 282 283 284 284 285 285 286 287 288 288 289 289 290 291 291 291 291 292 294 296 296 296 296 296 295 293 292 291 290 288 288 287 287 287 287 287 287 287 287 286 285 284 283 281 278 275 272 271
263 263 264 264 265 265 266 266 267 268 268 269 269 269 269 270 270 271 272 272 273 273 274 274 275 276 276 276 276 277 277 277 278 278 279 279 279 280 281 282 283 284 285 285 286 286 287 288 288 288 289 290 290 290 291 293 295 296 296 296 296 295 294 293 292 291 290 288 287 287 287 287 287 288 288 288 288 288 287 286 284 282 280 279 276 273 270
265 265 266 266 266 267 267 267 267 268 268 269 269 269 270 270 271 272 272 272 273 273 274 274 275 275 275 275 276 276 276 276 277 277 278 278 279 280 281 281 282 283 284 284 285 285 286 287 287 288 289 289 290 291 293 294 295 295 294 294 294 293 292 292 291 289 289 288 288 288 288 289 289 290 289 289 289 288 287 286 285 282 279 278 277 274 272
268 268 269 269 269 268 267 267 267 267 267 268 269 269 270 271 271 271 271 272 272 272 273 273 273 274 274 275 275 276 276 276 277 277 277 278 278 279 279 280 280 280 281 281 282 283 284 285 286 287 288 289 290 292 293 293 292 292 292 292 291 291 290 290 290 289 288 288 288 289 290 290 290 290 289 289 288 288 287 286 284 282 281 279 278 277 275
271 271 271 271 270 269 268 267 266 266 266 266 267 268 268 269 269 269 269 269 270 271 271 272 272 273 274 275 275 276 276 276 277 278 278 278 278 279 278 278 277 278 278 279 280 282 283 284 284 285 286 288 290 290 290 290 289 289 289 289 289 289 288 288 288 288 288 288 289 289 290 290 289 289 288 288 287 286 286 285 284 283 283 282 281 280 278
274 274 273 271 270 268 266 264 263 263 263 264 265 266 266 266 266 266 267 268 269 270 271 272 273 273 274 274 275 276 276 277 277 277 277 278 277 277 276 276 276 276 277 278 280 281 282 282 283 285 287 288 288 288 287 287 287 287 287 287 287 288 288 288 287 287 287 288 289 289 289 289 289 288 287 287 286 285 285 285 285 285 284 284 283 282 281
278 277 275 272 269 267 264 261 260 259 259 259 259 261 262 263 264 265 267 269 271 272 272 272 272 272 273 273 274 275 276 276 277 277 276 276 275 275 275 275 276 277 278 279 280 281 282 283 285 287 287 286 285 285 285 285 285 285 286 287 288 288 288 288 287 287 288 288 289 289 289 289 288 287 286 286 287 287 288 287 287 287 286 286 285 284 283
280 279 277 273 270 267 263 259 257 255 254 251 250 253 259 263 266 268 270 271 271 272 272 272 271 272 272 273 274 274 274 274 274 275 276 277 276 276 276 276 277 278 279 280 281 282 284 285 285 285 284 282 282 281 282 283 284 285 287 288 288 288 287 287 287 287 288 288 288 288 288 288 287 287 287 288 289 290 290 290 290 290 289 288 287 286 285
281 279 276 272 269 265 262 258 255 253 251 249 248 252 257 262 266 268 271 271 270 269 270 270 270 271 271 272 273 273 273 272 272 274 276 277 277 278 278 279 279 280 281 281 282 282 282 282 281 280 279 279 279 281 283 284 286 287 287 288 288 287 286 286 286 287 288 288 287 287 287 287 287 287 288 288 289 290 290 291 291 291 290 290 289 289 288
276 273 270 268 264 261 258 256 253 252 250 250 250 251 254 257 260 261 262 263 262 263 264 266 268 270 271 272 273 274 274 274 274 275 276 278 279 279 280 280 279 279 279 280 280 279 279 278 278 277 277 279 281 283 285 286 286 287 287 287 286 285 284 284 285 286 286 287 286 286 286 286 287 287 287 288 289 290 291 292 292 293 293 293 293 292 291
272 269 267 263 259 256 255 254 253 251 250 250 249 248 249 253 256 257 256 256 257 258 259 261 264 267 271 273 275 276 276 276 276 276 277 278 278 278 278 278 278 278 278 278 278 278 277 277 277 278 279 282 284 286 286 286 286 287 286 285 285 284 284 284 285 286 286 286 286 287 287 287 287 287 288 289 290 291 292 293 294 295 295 294 294 293 292
268 263 259 255 252 252 253 251 249 249 249 249 247 246 246 248 251 252 253 254 255 256 258 260 262 265 269 273 276 277 277 277 277 277 277 277 277 277 277 277 278 278 278 278 278 279 279 279 279 280 282 284 286 287 286 286 286 286 286 286 286 286 286 286 286 286 286 286 285 286 286 286 286 286 287 289 290 292 293 294 294 295 294 294 294 295 295
257 250 242 239 240 241 242 243 244 246 247 246 245 244 243 243 244 245 246 247 250 254 258 263 266 269 271 274 276 277 277 278 277 277 276 275 275 276 277 278 278 278 278 278 280 281 282 283 283 283 284 284 286 287 287 287 286 286 286 286 286 286 287 287 286 285 285 284 284 284 284 284 284 285 286 288 290 292 293 293 294 294 294 295 297 298 299
244 240 236 233 232 232 234 237 240 243 246 248 250 250 247 245 246 248 250 253 257 261 264 268 270 272 273 274 275 276 277 277 277 277 277 277 276 277 278 279 280 281 281 281 280 280 282 284 286 286 285 285 285 286 287 289 289 289 288 287 287 287 286 285 285 284 283 283 283 283 282 282 283 284 286 288 290 291 292 293 294 295 296 297 298 299 299
Height
10896 10897 10895 10898 10901 10903 10902 10903 10906 10907 10909 10911 10911 10913 10912 10908 10907 10908 10907 10908 10906 10902 10899 10902 10906 10908 10906 10905 10905 10905 10904 10902 10901 10901 10901 10901 10898 10896 10893 10891 10889 10887 10885 10883 10880 10878 10875 10872 10870 10868 10866 10864 10861 10856 10852 10848 10845 10842 10839 10835 10831 10826 10822 10817 10813 10809 10805 10801 10797 10793 10789 10784 10780 10776 10773 10769 10765 10761 10757 10753 10750 10747 10743 10740 10737 10734 10732
10888 10889 10890 10892 10894 10894 10893 10896 10900 10900 10902 10905 10905 10906 10906 10903 10901 10899 10899 10902 10900 10895 10894 10896 10899 10901 10901 10899 10898 10898 10898 10897 10895 10894 10893 10894 10893 10890 10888 10886 10884 10882 10879 10877 10874 10871 10869 10866 10863 10862 10861 10860 10856 10851 10848 10845 10840 10837 10833 10829 10824 10820 10815 10811 10806 10802 10797 10793 10789 10785 10781 10777 10772 10768 10765 10761 10758 10754 10750 10746 10743 10739 10736 10732 10729 10726 10723
10880 10881 10883 10885 10885 10885 10885 10888 10892 10894 10896 10897 10897 10898 10897 10896 10894 10890 10890 10895 10894 10890 10890 10892 10892 10892 10892 10893 10891 10890 10891 10890 10889 10887 10886 10886 10885 10883 10881 10879 10877 10875 10873 10870 10867 10864 10863 10861 10859 10858 10857 10857 10853 10846 10842 10839 10835 10832 10828 10823 10818 10813 10808 10804 10800 10795 10790 10785 10781 10777 10773 10768 10764 10760 10757 10753 10750 10746 10743 10739 10735 10732 10729 10725 10722 10718 10714
10870 10872 10876 10876 10874 10875 10879 10883 10886 10888 10889 10888 10889 10890 10888 10887 10886 10883 10883 10887 10886 10885 10887 10888 10886 10883 10883 10885 10884 10883 10883 10882 10881 10880 10878 10877 10876 10874 10873 10870 10868 10866 10864 10862 10860 10858 10857 10856 10855 10854 10854 10855 10853 10846 10839 10835 10832 10828 10822 10817 10813 10807 10802 10797 10793 10788 10783 10778 10773 10769 10765 10761 10757 10753 10748 10745 10742 10738 10734 10731 10728 10725 10722 10718 10715 10711 10707
10862 10865 10868 10866 10863 10865 10872 10877 10878 10881 10882 10881 10881 10880 10878 10878 10878 10876 10877 10878 10878 10881 10883 10882 10879 10877 10876 10877 10877 10875 10875 10874 10873 10872 10870 10869 10867 10866 10864 10862 10860 10858 10856 10855 10853 10851 10850 10848 10847 10848 10849 10852 10852 10845 10837 10831 10827 10822 10816 10811 10806 10801 10795 10790 10786 10781 10775 10770 10766 10762 10757 10753 10749 10745 10741 10736 10733 10730 10726 10723 10720 10717 10714 10711 10707 10702 10698
10855 10856 10857 10856 10855 10859 10865 10868 10870 10874 10875 10874 10873 10871 10869 10870 10870 10870 10870 10870 10871 10875 10877 10875 10873 10872 10869 10869 10868 10867 10867 10867 10866 10865 10863 10862 10860 10858 10857 10855 10853 10850 10848 10847 10845 10843 10842 10840 10838 10838 10840 10843 10842 10836 10830 10824 10818 10813 10809 10804 10800 10794 10789 10784 10780 10774 10769 10763 10759 10755 10750 10745 10741 10737 10733 10729 10725 10721 10718 10715 10712 10708 10705 10702 10698 10694 10690
10845 10845 10847 10849 10851 10854 10856 10858 10863 10868 10867 10864 10865 10863 10860 10861 10863 10863 10862 10863 10865 10867 10868 10868 10868 10866 10864 10862 10860 10860 10860 10859 10858 10857 10856 10855 10853 10851 10849 10848 10845 10843 10841 10839 10836 10834 10832 10830 10828 10827 10827 10828 10826 10821 10818 10814 10809 10804 10799 10796 10792 10786 10781 10777 10773 10768 10762 10757 10752 10747 10742 10737 10733 10729 10725 10721 10718 10714 10710 10707 10703 10699 10696 10693 10689 10685 10681
10835 10836 10841 10845 10845 10847 10847 10848 10854 10859 10857 10855 10856 10855 10851 10852 10856 10857 10855 10856 10859 10860 10859 10860 10861 10860 10858 10855 10853 10854 10853 10851 10851 10851 10849 10848 10845 10843 10841 10840 10837 10835 10832 10830 10827 10825 10823 10820 10818 10816 10814 10813 10810 10807 10804 10801 10798 10794 10789 10786 10782 10776 10771 10768 10765 10760 10755 10749 10744 10740 10734 10729 10725 10721 10717 10714 10711 10707 10703 10699 10694 10691 10688 10684 10680 10676 10672
10829 10830 10834 10838 10838 10838 10840 10842 10845 10848 10846 10846 10849 10848 10843 10843 10848 10849 10848 10850 10853 10852 10851 10852 10853 10853 10851 10847 10848 10849 10845 10844 10845 10844 10842 10841 10838 10836 10834 10832 10829 10827 10824 10821 10819 10816 10813 10811 10808 10806 10803 10800 10797 10794 10791 10788 10785 10781 10778 10775 10772 10766 10761 10758 10755 10752 10747 10742 10737 10732 10726 10721 10717 10713 10709 10706 10703 10699 10695 10691 10686 10683 10681 10676 10671 10666 10662
10824 10823 10825 10829 10829 10831 10835 10836 10835 10835 10835 10838 10842 10841 10835 10834 10838 10840 10841 10844 10845 10843 10842 10843 10845 10846 10843 10840 10842 10843 10838 10837 10838 10837 10834 10834 10831 10829 10827 10824 10822 10820 10816 10813 10811 10808 10805 10803 10800 10797 10794 10790 10786 10783 10780 10777 10774 10770 10767 10765 10762 10757 10753 10748 10745 10742 10738 10733 10728 10724 10718 10713 10708 10704 10701 10698 10695 10692 10687 10683 10679 10676 10672 10668 10662 10658 10653
10816 10816 10817 10820 10822 10823 10826 10827 10825 10825 10827 10828 10832 10833 10828 10825 10829 10834 10835 10837 10836 10833 10833 10835 10836 10837 10835 10833 10836 10837 10833 10831 10831 10829 10827 10826 10824 10821 10820 10817 10814 10812 10809 10806 10803 10800 10797 10795 10792 10789 10785 10781 10778 10774 10770 10767 10764 10761 10759 10756 10752 10749 10745 10740 10736 10732 10728 10723 10718 10714 10710 10706 10701 10697 10694 10690 10687 10683 10678 10675 10672 10668 10663 10658 10653 10648 10644
10806 10807 10809 10812 10813 10810 10811 10815 10816 10819 10821 10819 10821 10825 10822 10818 10821 10827 10829 10827 10825 10824 10826 10827 10827 10828 10828 10827 10827 10828 10827 10824 10823 10821 10820 10819 10817 10814 10813 10810 10807 10805 10801 10798 10795 10793 10790 10787 10785 10781 10777 10774 10771 10767 10762 10759 10755 10753 10751 10748 10743 10739 10736 10731 10727 10723 10719 10714 10709 10706 10702 10698 10695 10692 10688 10684 10680 10675 10670 10667 10664 10659 10654 10650 10644 10638 10634
10796 10796 10799 10803 10801 10797 10800 10806 10806 10810 10815 10812 10811 10815 10816 10813 10815 10819 10819 10817 10816 10817 10818 10818 10818 10820 10821 10820 10819 10819 10818 10815 10814 10813 10812 10810 10809 10807 10805 10803 10801 10797 10794 10791 10789 10786 10783 10781 10778 10774 10770 10767 10764 10760 10755 10751 10746 10744 10743 10739 10735 10730 10726 10722 10719 10716 10712 10708 10703 10699 10695 10691 10688 10685 10681 10677 10673 10669 10664 10660 10656 10651 10646 10641 10636 10630 10625
10788 10788 10790 10792 10789 10787 10793 10798 10797 10801 10806 10804 10803 10807 10808 10807 10807 10809 10811 10809 10807 10808 10809 10808 10809 10810 10811 10812 10811 10810 10809 10806 10804 10804 10803 10801 10801 10799 10797 10795 10792 10790 10787 10784 10781 10779 10777 10774 10770 10766 10762 10759 10755 10752 10748 10743 10739 10737 10734 10731 10727 10722 10718 10715 10712 10709 10706 10702 10697 10693 10689 10684 10681 10679 10675 10670 10666 10662 10658 10653 10649 10644 10639 10634 10629 10623 10618
10782 10778 10777 10779 10781 10782 10787 10789 10790 10794 10796 10794 10795 10798 10798 10799 10801 10801 10803 10802 10799 10799 10799 10799 10800 10800 10801 10802 10802 10801 10801 10799 10796 10795 10793 10792 10791 10790 10788 10786 10784 10781 10779 10776 10774 10771 10769 10766 10762 10758 10754 10751 10747 10744 10740 10736 10733 10730 10726 10722 10718 10714 10711 10708 10704 10702 10700 10696 10691 10687 10683 10679 10675 10672 10669 10664 10659 10654 10650 10645 10641 10637 10633 10627 10621 10616 10612
10772 10768 10766 10771 10777 10781 10782 10781 10781 10785 10786 10785 10788 10790 10790 10792 10793 10792 10793 10794 10793 10791 10789 10790 10791 10791 10791 10793 10793 10792 10793 10791 10788 10786 10783 10782 10781 10780 10779 10777 10775 10772 10770 10767 10765 10763 10760 10757 10754 10749 10745 10742 10739 10736 10733 10730 10727 10724 10719 10715 10710 10706 10703 10699 10696 10695 10692 10688 10684 10681 10677 10673 10669 10665 10662 10657 10652 10647 10642 10637 10633 10629 10625 10620 10613 10608 10604
10761 10762 10762 10765 10770 10773 10772 10770 10770 10774 10778 10780 10780 10781 10782 10783 10784 10784 10785 10785 10785 10784 10783 10782 10782 10782 10782 10783 10783 10783 10783 10782 10779 10777 10774 10772 10770 10769 10769 10767 10765 10763 10761 10758 10756 10754 10751 10747 10744 10740 10736 10733 10729 10726 10724 10721 10719 10716 10712 10707 10701 10697 10695 10692 10688 10686 10682 10680 10679 10675 10669 10665 10662 10658 10654 10649 10644 10640 10635 10629 10623 10619 10615 10610 10604 10600 10596
10752 10757 10755 10756 10759 10760 10760 10760 10759 10764 10772 10774 10772 10770 10772 10773 10774 10775 10777 10776 10776 10776 10776 10775 10774 10773 10773 10774 10774 10772 10772 10772 10770 10767 10764 10762 10760 10758 10757 10755 10753 10752 10751 10748 10746 10744 10741 10737 10733 10731 10727 10722 10719 10717 10713 10711 10709 10705 10701 10698 10693 10687 10684 10682 10680 10678 10675 10674 10672 10667 10661 10656 10651 10648 10646 10641 10635 10632 10628 10621 10615 10610 10606 10601 10595 10592 10590
10743 10747 10745 10746 10750 10750 10749 10749 10752 10757 10763 10765 10763 10762 10762 10764 10764 10765 10766 10767 10767 10767 10767 10767 10766 10765 10765 10766 10765 10764 10763 10761 10759 10757 10755 10753 10751 10749 10747 10744 10742 10741 10739 10737 10735 10734 10731 10727 10723 10721 10717 10712 10708 10706 10703 10701 10699 10694 10689 10686 10683 10678 10674 10671 10670 10669 10667 10665 10661 10656 10652 10648 10643 10639 10636 10631 10626 10624 10619 10614 10608 10604 10600 10596 10589 10585 10583
10730 10733 10734 10737 10740 10738 10737 10741 10748 10754 10755 10754 10754 10753 10753 10754 10755 10756 10757 10758 10757 10757 10758 10759 10758 10757 10757 10757 10756 10756 10755 10751 10747 10745 10745 10743 10742 10740 10738 10735 10733 10730 10727 10725 10724 10722 10720 10716 10713 10709 10705 10700 10697 10696 10693 10690 10687 10683 10679 10675 10671 10667 10664 10662 10660 10659 10656 10653 10649 10644 10639 10636 10634 10631 10625 10619 10616 10614 10611 10606 10601 10596 10592 10588 10583 10578 10576
10717 10719 10724 10731 10733 10728 10727 10736 10745 10746 10741 10740 10743 10745 10746 10746 10746 10747 10748 10747 10747 10748 10750 10751 10751 10750 10749 10747 10746 10747 10748 10744 10738 10735 10734 10732 10732 10731 10729 10726 10723 10721 10718 10716 10713 10711 10708 10705 10701 10697 10693 10688 10685 10684 10683 10680 10675 10672 10670 10665 10659 10656 10654 10652 10650 10649 10645 10640 10637 10634 10629 10624 10622 10621 10616 10608 10603 10602 10600 10595 10590 10587 10582 10577 10573 10570 10567
10707 10710 10718 10726 10725 10717 10718 10730 10737 10732 10727 10731 10735 10737 10737 10737 10736 10736 10737 10737 10738 10740 10741 10741 10743 10744 10742 10738 10735 10738 10741 10736 10729 10725 10724 10722 10722 10722 10719 10716 10714 10711 10709 10707 10704 10701 10698 10694 10690 10686 10683 10679 10674 10671 10671 10669 10665 10662 10660 10656 10650 10646 10643 10642 10640 10637 10633 10629 10626 10623 10620 10615 10610 10609 10606 10600 10593 10590 10588 10583 10578 10575 10572 10566 10562 10560 10557
10697 10702 10710 10716 10714 10707 10709 10719 10725 10721 10720 10724 10726 10726 10726 10726 10726 10727 10728 10728 10729 10731 10732 10732 10734 10737 10737 10730 10724 10727 10733 10729 10720 10715 10713 10712 10711 10711 10709 10706 10704 10702 10699 10697 10694 10691 10687 10683 10679 10676 10673 10670 10665 10661 10659 10657 10654 10652 10650 10647 10642 10637 10633 10632 10630 10625 10620 10617 10614 10610 10608 10605 10599 10596 10595 10590 10583 10579 10578 10573 10568 10565 10561 10557 10553 10550 10548
10686 10692 10701 10706 10705 10701 10701 10707 10711 10713 10715 10716 10715 10715 10715 10715 10716 10717 10719 10719 10720 10722 10723 10722 10724 10728 10727 10721 10714 10716 10720 10717 10710 10706 10705 10702 10700 10699 10698 10696 10694 10691 10689 10686 10683 10679 10675 10672 10669 10665 10662 10659 10655 10651 10650 10647 10643 10641 10640 10636 10632 10628 10623 10622 10620 10615 10608 10604 10601 10598 10595 10593 10588 10585 10584 10580 10574 10569 10567 10563 10559 10555 10552 10548 10545 10542 10539
10675 10683 10694 10698 10694 10690 10692 10694 10697 10704 10710 10708 10703 10702 10703 10706 10707 10709 10710 10710 10711 10714 10714 10713 10712 10714 10714 10710 10706 10705 10705 10703 10699 10696 10695 10693 10689 10687 10686 10684 10682 10680 10677 10674 10670 10666 10662 10660 10658 10654 10650 10649 10645 10642 10640 10638 10634 10631 10630 10626 10621 10618 10614 10611 10609 10604 10598 10593 10590 10586 10583 10580 10577 10574 10573 10570 10564 10560 10557 10553 10549 10546 10543 10540 10536 10534 10532
10670 10678 10685 10686 10682 10679 10682 10685 10688 10694 10698 10696 10691 10691 10695 10699 10699 10699 10699 10699 10700 10703 10705 10702 10700 10700 10699 10698 10695 10693 10692 10691 10689 10688 10686 10683 10679 10676 10675 10673 10670 10667 10664 10661 10656 10653 10650 10648 10646 10642 10638 10637 10635 10632 10629 10627 10624 10621 10619 10615 10611 10607 10604 10600 10596 10591 10587 10583 10580 10576 10572 10569 10566 10563 10561 10558 10554 10551 10549 10545 10541 10537 10534 10531 10528 10526 10525
10664 10669 10672 10672 10671 10672 10676 10680 10681 10681 10681 10682 10684 10686 10687 10688 10688 10688 10688 10689 10689 10691 10694 10693 10690 10688 10686 10685 10685 10683 10680 10678 10678 10677 10674 10671 10668 10666 10664 10662 10658 10655 10652 10648 10643 10640 10639 10636 10634 10631 10628 10625 10624 10622 10619 10616 10614 10611 10608 10604 10600 10597 10594 10588 10583 10578 10574 10571 10568 10564 10562 10558 10555 10552 10549 10546 10543 10541 10539 10536 10532 10529 10526 10523 10521 10519 10517
10655 10658 10661 10663 10664 10665 10667 10670 10670 10669 10669 10672 10675 10676 10676 10676 10677 10677 10678 10678 10677 10678 10683 10684 10682 10679 10676 10674 10674 10673 10669 10664 10664 10664 10660 10657 10656 10655 10653 10650 10647 10643 10640 10636 10631 10629 10627 10625 10622 10620 10618 10614 10613 10611 10608 10605 10602 10599 10596 10593 10590 10586 10583 10578 10571 10566 10562 10559 10556 10553 10551 10548 10544 10541 10538 10535 10533 10531 10528 10525 10522 10520 10517 10516 10514 10512 10511
10647 10650 10652 10654 10655 10655 10657 10659 10660 10661 10661 10661 10663 10664 10665 10666 10666 10666 10667 10667 10665 10665 10669 10672 10673 10671 10666 10664 10665 10664 10658 10653 10652 10650 10646 10645 10646 10645 10641 10639 10636 10633 10629 10625 10621 10618 10617 10614 10611 10609 10606 10604 10603 10600 10597 10594 10591 10588 10585 10582 10578 10574 10571 10568 10563 10557 10553 10550 10547 10543 10540 10537 10533 10530 10527 10525 10523 10521 10519 10516 10513 10510 10508 10507 10506 10505 10503
10639 10641 10642 10643 10645 10646 10647 10648 10650 10652 10652 10650 10651 10652 10653 10654 10655 10655 10655 10655 10654 10653 10654 10659 10663 10661 10655 10654 10656 10654 10647 10643 10641 10637 10635 10635 10635 10633 10629 10627 10625 10623 10619 10614 10610 10609 10607 10603 10601 10598 10595 10593 10592 10589 10585 10582 10580 10577 10574 10571 10565 10560 10558 10556 10553 10548 10543 10539 10536 10533 10530 10527 10523 10520 10517 10515 10513 10511 10509 10507 10504 10502 10500 10498 10497 10497 10495
10629 10630 10631 10633 10635 10635 10636 10637 10639 10639 10639 10640 10640 10640 10640 10643 10645 10644 10643 10642 10642 10642 10642 10645 10648 10646 10644 10645 10647 10642 10635 10633 10632 10628 10625 10625 10624 10620 10616 10614 10613 10612 10608 10603 10600 10598 10595 10591 10589 10587 10584 10581 10580 10577 10573 10570 10567 10566 10564 10559 10552 10547 10544 10542 10539 10536 10532 10528 10524 10521 10519 10516 10513 10510 10507 10505 10504 10502 10500 10498 10496 10494 10492 10490 10489 10489 10487
10620 10620 10621 10622 10623 10624 10625 10627 10627 10627 10626 10628 10629 10629 10630 10631 10632 10632 10632 10630 10629 10630 10631 10632 10632 10631 10630 10633 10633 10628 10623 10623 10623 10620 10616 10614 10610 10606 10604 10602 10601 10599 10596 10592 10589 10587 10583 10580 10578 10576 10573 10570 10567 10564 10561 10558 10555 10553 10551 10546 10539 10534 10531 10529 10525 10522 10520 10516 10513 10511 10508 10505 10503 10500 10497 10496 10494 10493 10491 10490 10488 10487 10485 10483 10482 10481 10480
10609 10609 10609 10610 10611 10613 10614 10615 10616 10616 10616 10616 10617 10618 10619 10619 10619 10620 10620 10619 10618 10618 10618 10618 10619 10618 10617 10617 10617 10614 10611 10611 10610 10608 10605 10601 10597 10594 10593 10591 10589 10587 10583 10580 10578 10575 10572 10569 10566 10564 10562 10559 10555 10551 10548 10546 10543 10540 10538 10535 10529 10523 10520 10517 10515 10511 10508 10505 10502 10500 10497 10495 10492 10490 10487 10486 10485 10484 10483 10481 10480 10479 10478 10476 10474 10473 10472
10596 10597 10598 10599 10601 10603 10604 10605 10606 10607 10607 10606 10606 10607 10607 10607 10607 10607 10608 10608 10607 10606 10604 10605 10606 10606 10604 10604 10604 10602 10598 10597 10597 10595 10591 10588 10585 10584 10582 10581 10578 10574 10571 10568 10565 10563 10561 10557 10554 10552 10549 10547 10543 10540 10536 10534 10531 10527 10523 10522 10518 10513 10508 10506 10503 10501 10498 10494 10491 10489 10487 10484 10482 10480 10478 10477 10476 10475 10474 10473 10472 10471 10470 10468 10467 10465 10465
10584 10586 10588 10589 10591 10592 10594 10595 10596 10597 10597 10597 10596 10596 10596 10596 10596 10596 10597 10596 10595 10594 10593 10593 10593 10592 10592 10593 10594 10591 10586 10584 10585 10583 10579 10576 10575 10573 10571 10570 10567 10562 10559 10556 10554 10551 10548 10544 10541 10539 10537 10535 10532 10528 10525 10522 10519 10515 10512 10509 10506 10502 10499 10495 10492 10489 10487 10484 10481 10479 10477 10474 10472 10471 10470 10469 10468 10467 10466 10465 10464 10463 10462 10461 10459 10458 10457
10575 10576 10577 10579 10580 10582 10583 10585 10586 10587 10587 10587 10586 10586 10586 10586 10586 10586 10585 10584 10584 10584 10582 10581 10580 10580 10580 10581 10582 10579 10575 10573 10572 10570 10567 10565 10563 10560 10559 10557 10553 10550 10547 10545 10543 10539 10535 10531 10529 10528 10525 10523 10520 10517 10514 10511 10508 10504 10501 10498 10494 10491 10489 10485 10482 10479 10476 10474 10471 10469 10468 10466 10464 10462 10461 10461 10460 10459 10458 10457 10456 10454 10453 10452 10451 10451 10450
10564 10565 10567 10569 10570 10571 10572 10574 10575 10576 10576 10576 10575 10575 10575 10575 10575 10575 10574 10573 10572 10571 10569 10566 10566 10567 10568 10569 10569 10567 10564 10562 10560 10558 10555 10553 10550 10547 10545 10543 10539 10536 10535 10533 10531 10527 10522 10519 10518 10516 10513 10511 10508 10505 10502 10500 10496 10493 10490 10487 10484 10481 10479 10476 10472 10470 10467 10464 10462 10460 10459 10457 10456 10454 10453 10453 10452 10451 10451 10449 10448 10446 10445 10444 10443 10443 10443
10554 10555 10557 10558 10560 10561 10561 10562 10562 10563 10564 10563 10563 10562 10562 10561 10561 10561 10561 10561 10559 10558 10556 10554 10553 10553 10554 10555 10555 10553 10551 10550 10548 10545 10543 10541 10538 10535 10533 10529 10525 10523 10522 10521 10519 10515 10511 10509 10507 10505 10501 10499 10497 10494 10491 10489 10486 10483 10481 10478 10474 10471 10469 10466 10463 10461 10458 10456 10454 10452 10451 10450 10448 10447 10446 10445 10444 10443 10442 10441 10440 10438 10437 10436 10436 10436 10435
10544 10545 10546 10547 10550 10551 10552 10551 10551 10551 10550 10550 10550 10550 10549 10548 10547 10546 10547 10546 10546 10545 10543 10541 10541 10541 10541 10541 10540 10539 10538 10536 10535 10533 10531 10528 10525 10522 10521 10518 10514 10511 10509 10507 10505 10503 10500 10498 10496 10493 10490 10489 10487 10483 10481 10478 10476 10473 10471 10469 10465 10463 10461 10458 10456 10453 10451 10449 10447 10445 10443 10442 10441 10440 10439 10438 10436 10435 10434 10433 10432 10430 10429 10429 10429 10428 10427
10532 10533 10534 10536 10539 10540 10541 10541 10540 10539 10538 10537 10536 10536 10536 10534 10534 10534 10533 10533 10532 10532 10530 10528 10528 10528 10528 10526 10525 10524 10523 10522 10521 10520 10519 10515 10510 10509 10509 10507 10503 10499 10496 10494 10492 10490 10488 10487 10485 10482 10479 10478 10476 10473 10470 10469 10466 10464 10462 10460 10457 10455 10453 10451 10449 10446 10444 10442 10440 10438 10437 10436 10434 10433 10432 10430 10428 10427 10426 10425 10425 10423 10422 10421 10421 10420 10420
10519 10521 10523 10526 10528 10529 10529 10529 10528 10527 10525 10523 10522 10522 10522 10521 10521 10522 10521 10519 10518 10518 10517 10516 10514 10513 10512 10511 10510 10509 10509 10508 10507 10507 10506 10502 10498 10497 10498 10496 10491 10488 10485 10483 10481 10479 10478 10476 10474 10471 10469 10468 10466 10463 10461 10460 10458 10455 10453 10451 10450 10448 10446 10443 10441 10439 10437 10434 10432 10431 10430 10429 10427 10426 10425 10423 10421 10420 10418 10418 10417 10416 10415 10414 10413 10413 10413
10505 10509 10512 10514 10514 10514 10514 10514 10514 10513 10511 10510 10509 10510 10509 10509 10509 10508 10507 10505 10504 10503 10503 10502 10500 10498 10497 10496 10496 10495 10494 10493 10492 10493 10492 10490 10487 10486 10486 10484 10480 10477 10475 10473 10471 10470 10469 10467 10464 10462 10460 10458 10456 10455 10453 10451 10449 10447 10446 10444 10442 10441 10439 10437 10434 10431 10429 10427 10425 10424 10423 10422 10421 10419 10418 10416 10415 10413 10412 10411 10411 10410 10409 10408 10407 10407 10407
10493 10496 10499 10499 10497 10497 10498 10499 10499 10498 10498 10498 10498 10498 10497 10496 10494 10493 10492 10491 10491 10490 10489 10488 10487 10486 10485 10484 10483 10482 10481 10480 10479 10478 10478 10477 10476 10475 10474 10471 10469 10467 10465 10463 10462 10462 10460 10457 10455 10454 10452 10450 10448 10447 10445 10443 10441 10440 10439 10437 10436 10434 10432 10430 10427 10424 10422 10420 10418 10417 10416 10415 10414 10413 10411 10410 10409 10408 10407 10406 10405 10404 10403 10403 10402 10402 10401
10481 10482 10484 10484 10481 10480 10482 10484 10484 10484 10486 10488 10487 10485 10483 10481 10480 10479 10479 10479 10479 10479 10478 10477 10475 10474 10474 10473 10471 10470 10469 10468 10468 10466 10465 10465 10465 10464 10462 10460 10458 10457 10456 10455 10454 10453 10451 10448 10446 10446 10445 10443 10440 10438 10436 10435 10433 10432 10431 10430 10429 10427 10425 10422 10420 10417 10416 10414 10412 10411 10410 10409 10408 10407 10405 10404 10403 10403 10402 10401 10400 10399 10398 10397 10397 10396 10396
10468 10468 10469 10469 10467 10466 10467 10469 10470 10472 10475 10478 10476 10471 10467 10467 10468 10468 10469 10470 10470 10469 10468 10466 10465 10463 10462 10462 10461 10461 10459 10458 10456 10455 10455 10455 10455 10453 10452 10451 10450 10448 10447 10446 10446 10445 10442 10440 10438 10438 10436 10434 10432 10430 10429 10427 10426 10425 10424 10422 10421 10419 10417 10414 10412 10410 10409 10408 10406 10405 10403 10403 10402 10401 10399 10398 10397 10397 10397 10396 10395 10394 10393 10392 10392 10391 10391
10458 10457 10457 10457 10456 10456 10457 10458 10459 10461 10464 10467 10465 10460 10457 10458 10460 10461 10462 10462 10462 10460 10459 10457 10455 10453 10452 10452 10452 10452 10452 10450 10447 10445 10445 10446 10445 10444 10443 10443 10441 10440 10439 10438 10437 10436 10435 10433 10431 10429 10427 10425 10424 10423 10421 10420 10419 10418 10417 10415 10414 10412 10410 10407 10405 10404 10403 10402 10401 10399 10398 10397 10396 10395 10395 10394 10393 10392 10392 10391 10390 10389 10388 10387 10386 10386 10385
10450 10448 10447 10447 10447 10448 10448 10449 10450 10452 10454 10455 10456 10455 10454 10454 10455 10455 10456 10455 10453 10452 10450 10449 10447 10445 10444 10444 10443 10443 10443 10442 10440 10438 10438 10437 10437 10435 10435 10434 10433 10432 10432 10431 10430 10428 10427 10426 10424 10422 10419 10417 10416 10415 10415 10413 10412 10411 10410 10408 10407 10405 10403 10401 10400 10399 10397 10397 10396 10395 10393 10392 10392 10391 10390 10390 10388 10388 10387 10386 10385 10384 10383 10382 10381 10380 10379
10443 10442 10440 10440 10440 10441 10442 10442 10443 10444 10446 10447 10448 10449 10449 10448 10448 10450 10450 10448 10446 10444 10443 10441 10439 10438 10437 10436 10437 10436 10436 10435 10434 10433 10431 10430 10430 10429 10427 10426 10425 10425 10425 10424 10422 10420 10419 10418 10416 10414 10411 10409 10409 10409 10408 10406 10405 10404 10403 10402 10400 10399 10398 10396 10394 10394 10393 10391 10391 10390 10389 10388 10387 10387 10386 10385 10384 10383 10382 10381 10380 10379 10378 10376 10375 10374 10373
10439 10438 10437 10436 10436 10436 10437 10437 10437 10438 10439 10440 10441 10442 10442 10441 10441 10441 10441 10440 10438 10437 10436 10435 10434 10432 10431 10430 10430 10430 10429 10428 10428 10427 10426 10424 10423 10422 10420 10418 10417 10417 10418 10417 10415 10412 10411 10411 10409 10405 10404 10403 10403 10402 10401 10400 10399 10398 10397 10396 10394 10393 10392 10391 10390 10388 10387 10386 10385 10385 10384 10383 10383 10382 10381 10381 10380 10379 10378 10376 10375 10374 10373 10371 10370 10369 10367
10436 10436 10435 10435 10434 10434 10433 10433 10433 10433 10433 10434 10435 10436 10436 10435 10434 10433 10433 10433 10432 10431 10430 10430 10429 10429 10427 10425 10424 10423 10422 10421 10421 10420 10419 10418 10416 10415 10412 10411 10410 10410 10411 10410 10408 10405 10403 10403 10401 10399 10397 10397 10397 10395 10394 10393 10393 10392 10391 10390 10389 10387 10386 10385 10384 10383 10382 10381 10380 10380 10379 10378 10378 10377 10376 10376 10375 10374 10373 10371 10370 10369 10368 10366 10365 10363 10362
10434 10434 10433 10433 10433 10432 10431 10431 10430 10430 10430 10430 10430 10431 10431 10430 10429 10428 10428 10428 10427 10426 10425 10424 10424 10424 10423 10420 10418 10417 10416 10415 10414 10413 10412 10411 10410 10409 10407 10404 10403 10402 10403 10404 10403 10399 10396 10395 10394 10392 10391 10391 10391 10389 10387 10386 10386 10387 10385 10384 10383 10382 10381 10380 10379 10378 10377 10376 10376 10375 10374 10374 10373 10372 10372 10371 10370 10369 10368 10367 10365 10364 10363 10361 10360 10358 10357
10432 10432 10432 10432 10431 10431 10430 10429 10428 10427 10427 10426 10426 10426 10426 10426 10425 10424 10424 10423 10422 10420 10419 10419 10418 10417 10416 10414 10412 10411 10411 10410 10408 10406 10405 10404 10404 10403 10401 10399 10396 10395 10395 10397 10397 10395 10392 10389 10387 10385 10384 10384 10385 10384 10382 10380 10379 10380 10379 10378 10377 10377 10376 10374 10373 10373 10372 10371 10371 10370 10369 10369 10368 10367 10367 10366 10365 10364 10363 10362 10360 10359 10357 10356 10355 10353 10352